{"data":{"norad_id":66631,"epoch":"2026-09-19T16:35:08.300256Z","epoch_age_seconds":156390,"freshness":"FRESH","line1":"1 66631U 25271Q   26262.69106829  .00015525  00000+0  46941-3 0  9992","line2":"2 66631  53.1588 313.5308 0000899  73.8245 286.2856 15.34416839 47330","mean_motion":15.34416839,"eccentricity":8.99e-5,"inclination_deg":53.1588,"raan_deg":313.5308,"arg_perigee_deg":73.8245,"mean_anomaly_deg":286.2856,"bstar":0.00046941,"rev_number":4733,"period_min":93.846728177101,"perigee_km":462.03820456993,"apogee_km":463.26817864638,"semimajor_km":6840.7901916082,"source":"CELESTRAK","updated_at":"2026-09-21T09:00:35.984809Z"}}